Overview Statistics Trail Chart Weather Telemetry Raw packets
 

This is the latest recevied weather packets stored in our database for station/object KB9HUO. If no packets are shown the sender has not sent any weather packets the latest 10 day(s).

<< 15 16 17 18 19 20 21 >>
Time Temp. Humidity Pressure Rain* Wind** Luminosity Snow
1788565068 31.67° C 69% 1014.2 hPa 0 mm - 12 W/m² -
1788564764 32.22° C 67% 1014.2 hPa 0 mm - 14 W/m² -
1788564460 32.22° C 67% 1014.4 hPa 0 mm - 15 W/m² -
1788564156 32.78° C 67% 1014.3 hPa 0 mm - 17 W/m² -
1788563851 32.78° C 65% 1014.3 hPa 0 mm - 18 W/m² -
1788563547 32.78° C 65% 1014.3 hPa 0 mm - 19 W/m² -
1788563247 33.33° C 64% 1014.3 hPa 0 mm - 20 W/m² -
1788562941 33.33° C 64% 1014.3 hPa 0 mm - 22 W/m² -
1788562640 33.33° C 63% 1014.3 hPa 0 mm - 25 W/m² -
1788562335 33.33° C 63% 1014.4 hPa 0 mm - 24 W/m² -
1788562034 33.33° C 63% 1014.2 hPa 0 mm - 25 W/m² -
1788561729 33.89° C 63% 1014.5 hPa 0 mm - 26 W/m² -
1788561428 33.89° C 61% 1014.4 hPa 0 mm - 27 W/m² -
1788561124 33.89° C 60% 1014.5 hPa 0 mm - 29 W/m² -
1788560818 33.89° C 58% 1014.4 hPa 0 mm - 31 W/m² -
1788560514 33.89° C 57% 1014.5 hPa 0 mm - 34 W/m² -
1788560213 34.44° C 58% 1014.5 hPa 0 mm - 35 W/m² -
1788559909 34.44° C 57% 1014.5 hPa 0 mm - 45 W/m² -
1788559603 35° C 58% 1014.6 hPa 0 mm - 39 W/m² -
1788559298 35° C 55% 1014.8 hPa 0 mm - 52 W/m² -
1788558993 35° C 55% 1014.8 hPa 0 mm - 68 W/m² -
1788558689 35° C 57% 1014.6 hPa 0 mm - 85 W/m² -
1788558389 34.44° C 55% 1014.8 hPa 0 mm - 62 W/m² -
1788558085 34.44° C 54% 1014.5 hPa 0 mm - 57 W/m² -
1788557782 34.44° C 57% 1014.9 hPa 0 mm - 54 W/m² -

* Rain latest hour (hover to see other rain measurements)
** Current wind speed in m/s (hover to see current wind gust speed)